STARLINK-38366, 100622

Orbit data source: Space-Track

STARLINK-38366, 100622 is a payload satellite owned by SpaceX/Seattle (US) in LEO that was launched on Sun, 06 Sep 2026 UTC launched from the Air Force Western Test Range (AFWTR). Payload-class satellites include a variety of spacecraft equipped with specific instruments for various scientific and technological missions. These include communications satellites like Starlink; space stations such as the ISS; scientific satellites like the Hubble; Earth observation satellites from companies like Planet Labs, Umbra, and HawkEye 360; GPS; miniature CubeSats for education and research; and military/defense satellites.

Not visible in the next 10 days
Identifier
100622, 2026-204H
Orbit
LEO
Country
Flag of USUS
Related business
Manufacturer
SpaceX/Seattle
Mission
Operational spacecraft
Bus & Motor
STARLINK V2MO, Unknown motor
Mass
575 kg wet, ~530 kg dry
Launch date (UTC)
2026-09-06 (5 days ago)
Launch vehicle
Unknown
Launch site
Air Force Western Test Range (AFWTR)
Object type
Payload
Rocket body
Debris
Shape & HBR
BOX + PAN, 17.7 m
Radar Cross Section
RCS unknown

Expand to show TLE details & history
Last TLE update: 21 hours ago

TLE from 21 hours ago
0 STARLINK-38366
1 A0622U 26204H   26253.56447701 -.01207391  48308-3 -19540-2 0  9998
2 A0622  69.9967 266.2370 0004883 272.0852  87.9802 16.03270624   648
Epoch: 2026-09-10T13:32Z
TLE epoch observation values (Epoch: 2026-09-10T13:32:50.813Z)
Latitude
0.00002°
Longitude
73.42492°
Altitude
267.791 km
Speed
7.747 km/s
True Right ascension
17h 44m 56s
True Declination
0° 00' 00"
Sunlit
Object was in daylight at epoch
Visualization orbit readout
Latitude
Unknown
Longitude
Unknown
Altitude
Unknown
Speed
Unknown
Apparent Right ascension
Unknown
Apparent Declination
Unknown
Sunlit
N/A
Visualization observer readout
Local Sidereal Time
02:29:43
Azimuth
Unknown
Elevation
Unknown
Doppler factor
Unknown
Orbital elements
Apogee altitude
266.465 km
Perigee altitude
259.979 km
Semi-major axis
6,641.359 km
Eccentricity
0.00049
Inclination
69.9967°
RAAN
266.237°
Arg. of periapsis
272.0852°
True anomaly
88.03612°
Mean anomaly
87.9802°
Eccentric anomaly
88.00816°
Mean motion
4.01012 °/min
Orbital period
89.77 mins
BSTAR
-0.001954
Loading maneuver chart data...
Computing Atmospheric mass density...
Loading historical data...
Loading historical data...
Loading historical data...
Loading historical data...
Loading historical data...
Loading historical data...
Loading historical data...

Documentation

Showing up to 5 results
|